Location: Chakepay
(13.3931°S, 72.1925°W)
Time: 23:06:42
(UTC+00:00)

H-2A R/B - Pass Details

Date: 15 November 2019
Orbit: 530 x 652 km, 98.3° (Epoch: 11 December)

Event Time Altitude Azimuth Distance (km) Brightness Sun altitude
Exits shadow 08:25:24 35° 28° (NNE) 997 3.5 -24.5°
Maximum altitude 08:27:07 70° 103° (ESE) 653 2.7 -24.2°
Drops below altitude 10° 08:31:20 10° 186° (S) 1,943 5.3 -23.3°
Sets 08:33:28 0° 188° (S) 2,829 6.2 -22.8°
